www.pogodaiklimat.ru

Погода и климат >> Архив погоды >> Саудовская Аравия >> Madinah


ПОГОДА в Madinah

  • Прогноз погоды в Madinah
  • Монитор погоды в Madinah
  • Климат города

АРХИВ ПОГОДЫ в Madinah

Время (UTC), дата Ветер
(напр.,м/с)
 
Видим.   Явления Облачность Т
(С)
Тd
(С)
f
(%)
Тe
(С)
Тes
(С)
Комфортность P
(гПа)
Po
(гПа)
Тmin
(С)
Tmax
(С)
R
(мм)
R24
(мм)
S
(см)
12 18.09 ЮЗ 5 10 км 4/4 1350 м
[Sc]
+42.8 -6.0 5 +39 +42 очень
жарко
1000.6 933.8
15 18.09 З 8 10 км 4/4 1350 м
[Sc]
+39.4 +3.0 11 +36 +36 очень
жарко
1001.8 934.5
18 18.09 З 3 6000 м пыль 1/1 1350 м
[Sc]
+36.4 +3.0 12 +33 +33 жарко 1004.7 937.3 +42.4
21 18.09 З 3 10 км 3/3 1350 м
[Sc]
+35.4 +2.0 12 +32 +32 жарко 1003.6 936.8
00 19.09 штиль 0 10 км ясно +32.4 +4.0 17 +30 +30 жарко 1004.1 937.0
03 19.09 штиль 0 10 км ясно +30.5 +3.0 17 +28 +28 жарко 1005.0 937.3
06 19.09 штиль 0 10 км ясно +35.2 +6.0 16 +33 +43 жарко 1006.2 938.5 +30.5
09 19.09 штиль 0 10 км ясно +40.4 -1.0 8 +37 +61 опасность
солнечного
удара
1004.6 937.5
12 19.09 З 4 10 км 4/3 1350 м
[Cu hum Ac trans]
+42.7 -6.0 5 +38 +43 очень
жарко
1001.8 934.8
15 19.09 З 7 10 км 6/3 1350 м
[Sc Ac trans]
+41.0 0.0 8 +37 +37 очень
жарко
1001.7 934.5
18 19.09 З 6 10 км 3/3 1350 м
[Sc]
+38.6 +1.0 10 +35 +35 очень
жарко
1003.9 936.9 +43.3
21 19.09 штиль 0 10 км ясно +35.8 +4.0 14 +33 +33 жарко 1003.6 936.8
00 20.09 штиль 0 10 км ясно +33.3 +4.0 16 +31 +31 жарко 1003.3 936.3
03 20.09 штиль 0 10 км ясно +30.4 +4.0 19 +28 +28 жарко 1004.5 936.9
06 20.09 штиль 0 10 км ясно +35.0 +4.0 14 +32 +42 жарко 1005.5 938.1 +30.4
09 20.09 штиль 0 10 км ясно +40.6 -10.0 4 +36 +60 опасность
солнечного
удара
1004.5 937.4
12 20.09 В 4 10 км ясно +43.2 -13.0 3 +39 +46 очень
жарко
1002.0 935.0
15 20.09 ЮВ 4 10 км 1/1 1350 м
[Cu hum]
+42.2 -10.0 3 +38 +38 очень
жарко
1001.3 934.2
18 20.09 В 4 10 км 1/1 1350 м
[Sc]
+40.0 -11.0 4 +35 +35 очень
жарко
1002.6 935.8 +43.5
21 20.09 штиль 0 10 км ясно +34.8 -9.0 6 +30 +30 жарко 1002.6 935.8
00 21.09 СВ 3 10 км ясно +32.0 -6.0 8 +28 +28 жарко 1002.7 935.8
03 21.09 штиль 0 10 км ясно +30.1 -6.0 9 +26 +26 жарко 1004.4 936.9
06 21.09 штиль 0 10 км ясно +34.8 -9.0 6 +30 +40 жарко 1005.8 938.5 +29.9
09 21.09 Ю 2 10 км ясно +41.0 -7.0 5 +37 +54 опасность
солнечного
удара
1005.0 937.8
12 21.09 Ю 2 10 км ясно +42.6 -14.0 2 +38 +48 очень
жарко
1002.7 935.6
15 21.09 штиль 0 10 км ясно +41.7 -14.0 3 +37 +37 очень
жарко
1002.7 935.3
18 21.09 З 4 10 км ясно +38.0 -5.0 6 +35 +35 очень
жарко
1004.2 937.2 +42.7
21 21.09 ЮЗ 3 10 км ясно +35.5 +5.0 15 +33 +33 жарко 1004.9 938.0
00 22.09 штиль 0 10 км ясно +32.4 +1.0 13 +29 +29 жарко 1004.5 937.5
03 22.09 штиль 0 10 км ясно +29.9 0.0 14 +27 +27 жарко 1005.6 938.0
06 22.09 СВ 2 10 км ясно +34.1 -2.0 10 +30 +38 жарко 1008.1 940.3 +29.5
09 22.09 ЮВ 5 10 км ясно +41.1 -7.0 5 +37 +47 очень
жарко
1006.5 939.3
12 22.09 ЮВ 4 10 км 4/4 1350 м
[Cu hum]
+44.0 -13.0 2 +39 +43 очень
жарко
1003.9 936.8
15 22.09 В 6 10 км 3/3 1350 м
[Sc]
+41.5 -14.0 3 +37 +37 очень
жарко
1004.2 936.7
18 22.09 ЮВ 5 10 км ясно +38.0 -8.0 5 +33 +33 жарко 1006.1 938.6 +44.0
21 22.09 штиль 0 10 км ясно +34.4 -10.0 5 +30 +30 жарко 1006.0 939.0
00 23.09 С 3 10 км ясно +30.7 -10.0 6 +26 +26 жарко 1006.1 938.7
03 23.09 штиль 0 10 км ясно +29.0 -9.0 8 +25 +25 комфорт 1007.3 939.4
06 23.09 С 1 10 км ясно +33.6 -10.0 6 +29 +37 жарко 1008.8 940.8 +28.7
09 23.09 В 2 10 км ясно +40.0 -11.0 4 +35 +53 опасность
солнечного
удара
1007.5 940.1
12 23.09 В 5 10 км 4/4 1350 м
[Cu hum]
+42.0 -9.0 4 +38 +41 очень
жарко
1005.5 938.1
15 23.09 ЮВ 2 10 км 3/3 1350 м
[Sc]
+41.0 -10.0 4 +36 +37 очень
жарко
1005.4 937.7
18 23.09 З 5 10 км 3/3 1350 м
[Sc]
+38.5 -2.0 8 +35 +35 очень
жарко
1005.9 938.7 +42.0
21 23.09 В 2 10 км 3/3 1350 м
[Sc]
+35.9 +2.0 12 +33 +33 жарко 1006.0 939.1
00 24.09 В 4 10 км 3/3 1350 м
[Sc]
+34.0 +2.0 13 +31 +31 жарко 1005.7 938.6
03 24.09 В 1 10 км 3/3 1350 м
[Sc]
+31.4 +5.0 19 +29 +29 жарко 1006.4 938.8
06 24.09 ЮВ 2 10 км ясно +35.6 +4.0 14 +33 +40 жарко 1007.4 940.0 +30.4
09 24.09 ЮЗ 3 10 км ясно +40.4 -1.0 8 +37 +51 опасность
солнечного
удара
1006.1 939.0
12 24.09 ЮВ 4 10 км 4/4 1350 м
[Sc]
+43.0 -6.0 5 +39 +43 очень
жарко
1003.6 936.8
15 24.09 ЮВ 4 10 км 5/4 1350 м
[Sc Ac trans]
+40.9 -7.0 5 +37 +37 очень
жарко
1004.0 936.5
18 24.09 СВ 7 10 км 3/3 1350 м
[Sc]
+40.5 -5.0 6 +36 +36 очень
жарко
1004.7 937.9 +43.0
21 24.09 ЮЗ 2 10 км 3/3 1350 м
[Sc]
+38.0 +1.0 10 +34 +34 очень
жарко
1005.0 938.3
00 25.09 С 3 10 км 3/3 1350 м
[Sc]
+36.8 0.0 10 +33 +33 жарко 1003.8 937.1
03 25.09 ЮВ 1 10 км 3/3 1350 м
[Sc]
+32.8 -2.0 11 +29 +29 жарко 1005.3 938.0
06 25.09 В 3 10 км ясно +36.5 -3.0 8 +32 +38 жарко 1006.5 939.4 +32.6
09 25.09 ЮЗ 3 10 км 3/3 1350 м
[Sc]
+40.8 -9.0 4 +36 +46 очень
жарко
1005.1 938.3

 

Местоположение метеостанции Madinah (Саудовская Аравия): широта 24.55 долгота 39.70 высота над уровнем моря 636 м.

В архиве по умолчанию представлена погода в Madinah за последнюю неделю. Архивные данные за месяц целиком и за предыдущие месяцы, начиная с января 2011 года, Вы можете получить, выбрав интересующий диапазон дат из раскрывающегося списка и нажав кнопку "Ввод!".


*Определитесь, кто Вы:
робот инопланетянин человек

Внимание! Время в таблицах - всемирное. Для получения местного времени необходимо прибавить поправку, которая в Madinah равна 3 ч.

Смотрите также архив погоды в соседних городах и на ближайших метеорологических станциях:

Погода в Yanbu (Саудовская Аравия) (172 км)
Погода в Al-Ula (Саудовская Аравия) (267 км)
Погода в Jeddah King Abdul Aziz (Саудовская Аравия) (321 км)
Погода в Makkah (Саудовская Аравия) (347 км)
Погода в Mina (Саудовская Аравия) (349 км)
Погода в Al Taif (Саудовская Аравия) (352 км)
Погода в Arafat (Саудовская Аравия) (359 км)
Погода в Al-Wajh (Саудовская Аравия) (372 км)
Погода в Hail (Саудовская Аравия) (377 км)
Погода в Shalatin (Египет) (448 км)

Пояснения к столбцам:

Ветер - указаны скорость ветра в м/с - средняя за 10 мин, порывы в срок и между сроками (в фигурных скобках) и направление, откуда дует ветер: С - северный, СВ - северо-восточный, В - восточный, ЮВ - юго-восточный, Ю - южный, ЮЗ - юго-западный, З - западный, СЗ - северо-западный.
Видимость - горизонтальная дальность видимости в метрах или километрах. При видимости от 1 до 10 км при отсутствии осадков обычно наблюдается дымка, при ухудшении видимости до 1 км и менее - туман. В сухую погоду видимость может ухудшаться дымом, пылью или мглою.
Явления - указаны атмосферные явления, наблюдавшиеся в срок или в последний час перед сроком; фигурными скобками обозначены явления, наблюдавшиеся между сроками (за 1-3 часа до срока); квадратными скобками обозначены град или гололедные отложения с указанием их диаметра в мм.
Облачность - указаны через наклонную черту общая и нижняя облачность в баллах и высота нижней границы облаков в метрах; квадратными скобками обозначены формы облаков: Ci - перистые, Cs - перисто-слоистые, Cc - перисто-кучевые, Ac - высококучевые, As - высокослоистые, Sc - слоисто-кучевые, Ns - слоисто-дождевые, Cu - кучевые, Cb - кучево-дождевые. Подробнее классификацию облаков см. в Атласе облаков (PDF).
T - Температура воздуха - температура, измеренная на высоте 2 м над землей.
Td - Температура точки росы - температура, при понижении до которой содержащийся в воздухе водяной пар достигнет насыщения.
f - Относительная влажность воздуха - влажноcть воздуха, измеренная на высоте 2 м над землей.
Te - Эффективная температура - температура, которую ощущает одетый по сезону человек в тени. Характеристика душности погоды. При расчете учитывается влияние влажности воздуха и скорости ветра на теплоощущения человека.
Tes - Эффективная температура на солнце - температура, которую ощущает человек, с поправкой на солнечный нагрев. Характеристика знойности погоды. Зависит от высоты солнца над горизонтом, облачности и скорости ветра. Ночью, в пасмурную погоду, а также при ветре 12 м/с и более поправка равна нулю.
P - Атмосферное давление - приведенное к уровню моря атмосферное давление.
Po - Атмосферное давление - измеренное на уровне метеостанции атмосферное давление.
Tmin - Минимальная температура - минимум температуры воздуха на высоте 2 м над землей.
Tmax - Максимальная температура - максимум температуры воздуха на высоте 2 м над землей.
R - Количество осадков - Количество выпавших осадков за период времени, мм. При наведении курсора мыши на число - период времени, за который выпало указанное количество осадков.
R24 - Количество осадков - Количество выпавших осадков за 24 часа, мм.
S - Снежный покров - Высота снежного покрова, см. При наведении курсора мыши на число - состояние снежного покрова и степень покрытия местности в баллах.